User: anonymous   Login
Location: Baix
(44.7118°N, 4.7648°E)
Time: 06:06:41
(UTC+00:00)
Language:

ARIANE 5 R/B - Orbit

View from above orbital plane
View from above orbital plane
View from above satellite
View from above satellite

Ground track
Ground track

The orbit data is extracted from the following two-line orbital elements,

1 27387U 02009B   20292.88079513 -.00000022  00000-0  77280-5 0  9998
2 27387  98.6236 246.4939 0033412 114.2884 246.1797 14.36002158976582
Epoch (UTC): 18 October 2020 21:08:20
Eccentricity: 0.0033412
inclination: 98.6236°
perigee height: 748 km
apogee height: 795 km
right ascension of ascending node: 246.4939°
argument of perigee: 114.2884°
revolutions per day: 14.36002158
mean anomaly at epoch: 246.1797°
orbit number at epoch: 97658

The dashed part of the orbit path shows where the satellite is in the earth's shadow,  

DLR